EW3645 Weather Reports


time (UTC)temp
F
wind
direction
speed
knots
gust
knots
rain 1hr
in
rain 24hr
in
rain mn
in
humidity
%
barometer
mb
20190220150508 45 0 0.0 0.0 0.00 0.00 0.00 62 1021.4
20190220150008 45 0 0.0 0.0 0.00 0.00 0.00 64 1021.5
20190220145507 45 0 0.0 0.0 0.00 0.00 0.00 64 1021.5
20190220145007 45 0 0.0 0.0 0.00 0.00 0.00 64 1021.5
20190220144507 45 0 0.0 0.0 0.00 0.00 0.00 63 1021.4
20190220144007 45 0 0.0 0.0 0.00 0.00 0.00 63 1021.5
20190220143507 45 0 0.0 0.0 0.00 0.00 0.00 63 1021.5
20190220143007 45 0 0.0 0.0 0.00 0.00 0.00 64 1021.5
20190220142508 45 0 0.0 0.0 0.00 0.00 0.00 63 1021.4
20190220142007 45 0 0.0 0.0 0.00 0.00 0.00 63 1021.5
20190220141507 46 0 0.0 0.0 0.00 0.00 0.00 62 1021.4
20190220141008 46 0 0.0 0.0 0.00 0.00 0.00 62 1021.4
20190220140507 47 0 0.0 0.0 0.00 0.00 0.00 60 1021.4
20190220140008 47 0 0.0 0.0 0.00 0.00 0.00 60 1021.4
20190220135507 47 0 0.0 0.0 0.00 0.00 0.00 59 1021.4
20190220135008 47 0 0.0 0.0 0.00 0.00 0.00 59 1021.3
20190220134507 47 0 0.0 0.0 0.00 0.00 0.00 59 1021.3
20190220134007 47 0 0.0 0.0 0.00 0.00 0.00 59 1021.3
20190220133507 47 0 0.0 0.0 0.00 0.00 0.00 59 1021.3
20190220133008 47 0 0.0 0.0 0.00 0.00 0.00 58 1021.1
20190220132507 47 0 0.0 0.0 0.00 0.00 0.00 59 1021.2
20190220132007 46 0 0.0 0.0 0.00 0.00 0.00 60 1021.1
20190220131507 46 0 0.0 0.0 0.00 0.00 0.00 62 1021.1
20190220131007 46 0 0.0 0.0 0.00 0.00 0.00 62 1021.1
20190220130507 46 0 0.0 0.0 0.00 0.00 0.00 62 1021.1
20190220130007 46 0 0.0 0.0 0.00 0.00 0.00 62 1021.0
20190220125507 47 0 0.0 0.0 0.00 0.00 0.00 61 1021.0
20190220125007 47 0 0.0 0.0 0.00 0.00 0.00 60 1020.9
20190220124507 47 0 0.0 0.0 0.00 0.00 0.00 61 1020.9
20190220124007 47 0 0.0 0.0 0.00 0.00 0.00 62 1020.9
20190220123507 46 0 0.0 0.0 0.00 0.00 0.00 64 1020.9
20190220123008 46 0 0.0 0.0 0.00 0.00 0.00 64 1020.9
20190220122507 46 0 0.0 0.0 0.00 0.00 0.00 63 1020.9
20190220122007 46 0 0.0 0.0 0.00 0.00 0.00 65 1021.0
20190220121508 46 0 0.0 0.0 0.00 0.00 0.00 65 1020.9
20190220121007 46 0 0.0 0.0 0.00 0.00 0.00 64 1020.9
20190220120507 47 0 0.0 0.0 0.00 0.00 0.00 64 1020.8
20190220120008 47 0 0.0 0.0 0.00 0.00 0.00 64 1020.8
20190220115507 47 0 0.0 0.0 0.00 0.00 0.00 65 1020.8
20190220115007 47 0 0.0 0.0 0.00 0.00 0.00 65 1020.8
20190220114507 47 0 0.0 0.0 0.00 0.00 0.00 64 1020.8
20190220114007 47 0 0.0 0.0 0.00 0.00 0.00 65 1020.8
20190220113507 47 0 0.0 0.0 0.00 0.00 0.00 64 1020.9
20190220113007 48 0 0.0 0.0 0.00 0.00 0.00 63 1020.9
20190220112507 48 0 0.0 0.0 0.00 0.00 0.00 65 1020.9
20190220112008 48 0 0.0 0.0 0.00 0.00 0.00 65 1021.0
20190220111507 47 0 0.0 0.0 0.00 0.00 0.00 65 1021.0
20190220111007 47 0 0.0 0.0 0.00 0.00 0.00 67 1021.0
20190220110507 47 0 0.0 0.0 0.00 0.00 0.00 66 1021.1
20190220110007 46 0 0.0 0.0 0.00 0.00 0.00 68 1021.2
20190220105507 46 0 0.0 0.0 0.00 0.00 0.00 70 1021.2
20190220105007 46 0 0.0 0.0 0.00 0.00 0.00 71 1021.1
20190220104507 46 0 0.0 0.0 0.00 0.00 0.00 71 1021.2
20190220104007 46 0 0.0 0.0 0.00 0.00 0.00 73 1021.2
20190220103507 46 0 0.0 0.0 0.00 0.00 0.00 73 1021.2
20190220103007 46 0 0.0 0.0 0.00 0.00 0.00 73 1021.2
20190220102507 46 0 0.0 0.0 0.00 0.00 0.00 75 1021.3
20190220102008 45 0 0.0 0.0 0.00 0.00 0.00 75 1021.2
20190220101507 45 0 0.0 0.0 0.00 0.00 0.00 78 1021.2
20190220101011 45 0 0.0 0.0 0.00 0.00 0.00 83 1021.3
20190220100508 45 0 0.0 0.0 0.00 0.00 0.00 85 1021.4
20190220100007 44 0 0.0 0.0 0.00 0.00 0.00 86 1021.3
20190220095508 44 0 0.0 0.0 0.00 0.00 0.00 86 1021.3
20190220095007 44 0 0.0 0.0 0.00 0.00 0.00 89 1021.3
20190220094507 43 0 0.0 0.0 0.00 0.00 0.00 91 1021.4
20190220094008 43 0 0.0 0.0 0.00 0.00 0.00 91 1021.3
20190220093508 42 0 0.0 0.0 0.00 0.00 0.00 100 1021.3
20190220093008 41 0 0.0 0.0 0.00 0.00 0.00 100 1021.3
20190220092507 39 0 0.0 0.0 0.00 0.00 0.00 100 1021.3
20190220092007 38 0 0.0 0.0 0.00 0.00 0.00 100 1021.3
20190220091509 37 0 0.0 0.0 0.00 0.00 0.00 100 1021.4
20190220091007 36 0 0.0 0.0 0.00 0.00 0.00 100 1021.4
20190220090507 36 0 0.0 0.0 0.00 0.00 0.00 100 1021.3
20190220090006 35 0 0.0 0.0 0.00 0.00 0.00 100 1021.4
20190220085507 35 0 0.0 0.0 0.00 0.00 0.00 100 1021.4
20190220085007 34 0 0.0 0.0 0.00 0.00 0.00 97 1021.3
20190220084507 34 0 0.0 0.0 0.00 0.00 0.00 97 1021.3
20190220084008 33 0 0.0 0.0 0.00 0.00 0.00 98 1021.3
20190220083507 33 0 0.0 0.0 0.00 0.00 0.00 97 1021.2
20190220083007 33 0 0.0 0.0 0.00 0.00 0.00 97 1021.2
20190220082507 33 0 0.0 0.0 0.00 0.00 0.00 97 1021.2
20190220082008 33 0 0.0 0.0 0.00 0.00 0.00 97 1021.1
20190220081507 33 0 0.0 0.0 0.00 0.00 0.00 97 1021.0
20190220081007 33 0 0.0 0.0 0.00 0.00 0.00 97 1021.1
20190220080507 33 0 0.0 0.0 0.00 0.00 0.00 97 1021.0
20190220080007 33 0 0.0 0.0 0.00 0.00 0.00 96 1021.1
20190220075507 32 0 0.0 0.0 0.00 0.00 0.00 96 1021.1
20190220075007 32 0 0.0 0.0 0.00 0.00 0.00 97 1021.0
20190220074507 32 0 0.0 0.0 0.00 0.00 0.00 97 1021.0
20190220074008 31 0 0.0 0.0 0.00 0.00 0.00 98 1020.8
20190220073506 31 0 0.0 0.0 0.00 0.00 0.00 98 1020.9
20190220073007 31 0 0.0 0.0 0.00 0.00 0.00 99 1020.9
20190220072507 31 0 0.0 0.0 0.00 0.00 0.00 99 1020.8
20190220072007 31 0 0.0 0.0 0.00 0.00 0.00 99 1020.7
20190220071507 30 0 0.0 0.0 0.00 0.00 0.00 100 1020.5
20190220071007 30 0 0.0 0.0 0.00 0.00 0.00 100 1020.5
20190220070507 30 0 0.0 0.0 0.00 0.00 0.00 100 1020.4
20190220070007 30 0 0.0 0.0 0.00 0.00 0.00 100 1020.3
20190220065507 30 0 0.0 0.0 0.00 0.00 0.00 100 1020.4
20190220065007 30 0 0.0 0.0 0.00 0.00 0.00 100 1020.5
20190220064507 30 0 0.0 0.0 0.00 0.00 0.00 100 1020.4
20190220064007 30 0 0.0 0.0 0.00 0.00 0.00 100 1020.3
20190220063507 30 0 0.0 0.0 0.00 0.00 0.00 100 1020.3
20190220063008 30 0 0.0 0.0 0.00 0.00 0.00 100 1020.3
20190220062506 30 0 0.0 0.0 0.00 0.00 0.00 100 1020.3
20190220062008 30 0 0.0 0.0 0.00 0.00 0.00 100 1020.2
20190220061507 29 0 0.0 0.0 0.00 0.00 0.00 100 1020.1
20190220061008 29 0 0.0 0.0 0.00 0.00 0.00 100 1020.1
20190220060507 29 0 0.0 0.0 0.00 0.00 0.00 100 1019.9
20190220060007 29 0 0.0 0.0 0.00 0.00 0.00 100 1019.8
20190220055507 29 0 0.0 0.0 0.00 0.00 0.00 100 1019.8
20190220055007 29 0 0.0 0.0 0.00 0.00 0.00 100 1019.8
20190220054507 29 0 0.0 0.0 0.00 0.00 0.00 100 1019.7
20190220054008 29 0 0.0 0.0 0.00 0.00 0.00 100 1019.8
20190220053507 29 0 0.0 0.0 0.00 0.00 0.00 100 1019.7
20190220053008 29 0 0.0 0.0 0.00 0.00 0.00 100 1019.5
20190220052507 29 0 0.0 0.0 0.00 0.00 0.00 100 1019.3
20190220052007 29 0 0.0 0.0 0.00 0.00 0.00 100 1019.5
20190220051507 29 0 0.0 0.0 0.00 0.00 0.00 100 1019.5
20190220051008 29 0 0.0 0.0 0.00 0.00 0.00 100 1019.3
20190220050507 29 0 0.0 0.0 0.00 0.00 0.00 100 1019.3
20190220050006 29 0 0.0 0.0 0.00 0.00 0.00 100 1019.3
20190220045507 29 0 0.0 0.0 0.00 0.00 0.00 100 1019.3
20190220045007 29 0 0.0 0.0 0.00 0.00 0.00 100 1019.4
20190220044517 29 0 0.0 0.0 0.00 0.00 0.00 100 1019.2
20190220044010 29 0 0.0 0.0 0.00 0.00 0.00 100 1019.3
20190220043515 30 0 0.0 0.0 0.00 0.00 0.00 100 1019.2
20190220043008 30 0 0.0 0.0 0.00 0.00 0.00 100 1019.2
20190220042506 30 0 0.0 0.0 0.00 0.00 0.00 100 1019.1
20190220042008 30 0 0.0 0.0 0.00 0.00 0.00 100 1019.1
20190220041507 29 0 0.0 0.0 0.00 0.00 0.00 100 1019.1
20190220041007 30 0 0.0 0.0 0.00 0.00 0.00 100 1019.2
20190220040507 30 0 0.0 0.0 0.00 0.00 0.00 100 1019.0
20190220040008 30 0 0.0 0.0 0.00 0.00 0.00 100 1019.1
20190220035506 30 0 0.0 0.0 0.00 0.00 0.00 100 1019.2
20190220035008 30 0 0.0 0.0 0.00 0.00 0.00 100 1019.0
20190220034507 30 0 0.0 0.0 0.00 0.00 0.00 100 1018.8
20190220034007 30 0 0.0 0.0 0.00 0.00 0.00 100 1018.8
20190220033507 30 0 0.0 0.0 0.00 0.00 0.00 100 1018.8
20190220033007 30 0 0.0 0.0 0.00 0.00 0.00 100 1018.9
20190220032507 30 0 0.0 0.0 0.00 0.00 0.00 100 1018.8
20190220032007 30 0 0.0 0.0 0.00 0.00 0.00 100 1018.8
20190220031506 30 0 0.0 0.0 0.00 0.00 0.00 100 1018.7
20190220031007 30 0 0.0 0.0 0.00 0.00 0.00 100 1018.6
20190220030507 31 0 0.0 0.0 0.00 0.00 0.00 100 1018.6
20190220030006 31 0 0.0 0.0 0.00 0.00 0.00 100 1018.7
20190220025507 31 0 0.0 0.0 0.00 0.00 0.00 100 1018.5
20190220025007 31 0 0.0 0.0 0.00 0.00 0.00 100 1018.4
20190220024506 31 0 0.0 0.0 0.00 0.00 0.00 100 1018.4
20190220024007 31 0 0.0 0.0 0.00 0.00 0.00 100 1018.4
20190220023507 31 0 0.0 0.0 0.00 0.00 0.00 100 1018.3
20190220023007 31 0 0.0 0.0 0.00 0.00 0.00 100 1018.2
20190220022506 32 0 0.0 0.0 0.00 0.00 0.00 100 1018.1
20190220022008 32 0 0.0 0.0 0.00 0.00 0.00 100 1018.0
20190220021507 32 0 0.0 0.0 0.00 0.00 0.00 100 1018.2
20190220021007 32 0 0.0 0.0 0.00 0.00 0.00 100 1018.4
20190220020507 32 0 0.0 0.0 0.00 0.00 0.00 100 1018.5
20190220020007 32 0 0.0 0.0 0.00 0.00 0.00 100 1018.5
20190220015506 32 0 0.0 0.0 0.00 0.00 0.00 100 1018.5
20190220015007 32 0 0.0 0.0 0.00 0.00 0.00 100 1018.5
20190220014506 32 0 0.0 0.0 0.00 0.00 0.00 100 1018.5
20190220014007 32 0 0.0 0.0 0.00 0.00 0.00 100 1018.4
20190220013507 32 0 0.0 0.0 0.00 0.00 0.00 100 1018.4
20190220013007 33 0 0.0 0.0 0.00 0.00 0.00 100 1018.4
20190220012506 33 0 0.0 0.0 0.00 0.00 0.00 100 1018.4
20190220012007 33 0 0.0 0.0 0.00 0.00 0.00 100 1018.6
20190220011506 33 0 0.0 0.0 0.00 0.00 0.00 100 1018.5
20190220011007 33 0 0.0 0.0 0.00 0.00 0.00 100 1018.5
20190220010507 33 0 0.0 0.0 0.00 0.00 0.00 100 1018.4
20190220010008 34 0 0.0 0.0 0.00 0.00 0.00 100 1018.3
20190220005507 34 0 0.0 0.0 0.00 0.00 0.00 100 1018.3
20190220005007 34 0 0.0 0.0 0.00 0.00 0.00 100 1018.3
20190220004507 35 0 0.0 0.0 0.00 0.00 0.00 100 1018.2
20190220004007 35 0 0.0 0.0 0.00 0.00 0.00 100 1018.3
20190220003506 35 0 0.0 0.0 0.00 0.00 0.00 100 1018.2
20190220003007 35 0 0.0 0.0 0.00 0.00 0.00 100 1018.2
20190220002506 35 0 0.0 0.0 0.00 0.00 0.00 100 1018.3
20190220002007 35 0 0.0 0.0 0.00 0.00 0.00 100 1018.2
20190220001506 35 0 0.0 0.0 0.00 0.00 0.00 100 1017.9
20190220001007 35 0 0.0 0.0 0.00 0.00 0.00 100 1017.9
20190220000507 35 0 0.0 0.0 0.00 0.00 0.00 100 1017.9
20190220000006 35 0 0.0 0.0 0.00 0.00 0.00 100 1017.7
20190219235507 35 0 0.0 0.0 0.00 0.00 0.00 100 1017.8
20190219235007 35 0 0.0 0.0 0.00 0.00 0.00 100 1017.8
20190219234507 35 0 0.0 0.0 0.00 0.00 0.00 100 1017.8
20190219234007 35 0 0.0 0.0 0.00 0.00 0.00 100 1017.8
20190219233507 35 0 0.0 0.0 0.00 0.00 0.00 100 1017.9
20190219233007 35 0 0.0 0.0 0.00 0.00 0.00 100 1017.8
20190219232506 35 0 0.0 0.0 0.00 0.00 0.00 100 1017.8
20190219232007 35 0 0.0 0.0 0.00 0.00 0.00 100 1017.8
20190219231507 35 0 0.0 0.0 0.00 0.00 0.00 100 1017.8
20190219231007 35 0 0.0 0.0 0.00 0.00 0.00 100 1017.8
20190219230506 35 0 0.0 0.0 0.00 0.00 0.00 100 1017.8
20190219230007 35 0 0.0 0.0 0.00 0.00 0.00 100 1017.6
20190219225506 35 0 0.0 0.0 0.00 0.00 0.00 100 1017.7
20190219225007 35 0 0.0 0.0 0.00 0.00 0.00 100 1017.7
20190219224506 35 0 0.0 0.0 0.00 0.00 0.00 100 1017.9
20190219224007 35 0 0.0 0.0 0.00 0.00 0.00 100 1017.7
20190219223507 35 0 0.0 0.0 0.00 0.00 0.00 100 1017.7
20190219223007 35 0 0.0 0.0 0.00 0.00 0.00 100 1017.6
20190219222507 35 0 0.0 0.0 0.00 0.00 0.00 100 1017.6
20190219222007 35 0 0.0 0.0 0.00 0.00 0.00 100 1017.6
20190219221507 34 0 0.0 0.0 0.00 0.00 0.00 100 1017.6
20190219221007 34 0 0.0 0.0 0.00 0.00 0.00 100 1017.7
20190219220507 34 0 0.0 0.0 0.00 0.00 0.00 100 1017.7
20190219220008 35 0 0.0 0.0 0.00 0.00 0.00 100 1017.6
20190219215506 35 0 0.0 0.0 0.00 0.00 0.00 100 1017.7
20190219215006 35 0 0.0 0.0 0.00 0.00 0.00 100 1017.6
20190219214506 35 0 0.0 0.0 0.00 0.00 0.00 100 1017.6
20190219214006 34 0 0.0 0.0 0.00 0.00 0.00 100 1017.6
20190219213506 34 0 0.0 0.0 0.00 0.00 0.00 100 1017.7
20190219213007 34 0 0.0 0.0 0.00 0.00 0.00 100 1017.6
20190219212506 34 0 0.0 0.0 0.00 0.00 0.00 100 1017.6
20190219212007 34 0 0.0 0.0 0.00 0.00 0.00 100 1017.7
20190219211506 35 0 0.0 0.0 0.00 0.00 0.00 100 1017.7
20190219211006 35 0 0.0 0.0 0.00 0.00 0.00 100 1017.7
20190219210506 35 0 0.0 0.0 0.00 0.00 0.00 100 1017.7
20190219210007 34 0 0.0 0.0 0.00 0.00 0.00 100 1017.7
20190219205506 34 0 0.0 0.0 0.00 0.00 0.00 100 1017.8
20190219205006 34 0 0.0 0.0 0.00 0.00 0.00 100 1017.8
20190219204507 34 0 0.0 0.0 0.00 0.00 0.00 100 1017.7
20190219204006 34 0 0.0 0.0 0.00 0.00 0.00 100 1017.8
20190219203507 34 0 0.0 0.0 0.00 0.00 0.00 100 1017.8
20190219203006 34 0 0.0 0.0 0.00 0.00 0.00 100 1017.9
20190219202506 34 0 0.0 0.0 0.00 0.00 0.00 100 1018.0
20190219202007 34 0 0.0 0.0 0.00 0.00 0.00 100 1018.0
20190219201507 34 0 0.0 0.0 0.00 0.00 0.00 100 1018.0
20190219201006 34 0 0.0 0.0 0.00 0.00 0.00 100 1018.0
20190219200506 34 0 0.0 0.0 0.00 0.00 0.00 100 1017.9
20190219200007 34 0 0.0 0.0 0.00 0.00 0.00 100 1017.9
20190219195506 34 0 0.0 0.0 0.00 0.00 0.00 100 1017.8
20190219195007 34 0 0.0 0.0 0.00 0.00 0.00 100 1017.8
20190219194506 35 0 0.0 0.0 0.00 0.00 0.00 100 1017.8
20190219194006 35 0 0.0 0.0 0.00 0.00 0.00 100 1017.8
20190219193507 35 0 0.0 0.0 0.00 0.00 0.00 100 1017.8
20190219193007 35 0 0.0 0.0 0.00 0.00 0.00 100 1017.6
20190219192506 36 0 0.0 0.0 0.00 0.00 0.00 100 1017.7
20190219192007 36 0 0.0 0.0 0.00 0.00 0.00 100 1017.7
20190219191507 36 0 0.0 0.0 0.00 0.00 0.00 100 1017.6
20190219191006 36 0 0.0 0.0 0.00 0.00 0.00 100 1017.6
20190219190506 36 0 0.0 0.0 0.00 0.00 0.00 100 1017.5
20190219190007 36 0 0.0 0.0 0.00 0.00 0.00 100 1017.6
20190219185507 36 0 0.0 0.0 0.00 0.00 0.00 100 1017.6
20190219185006 37 0 0.0 0.0 0.00 0.00 0.00 100 1017.5
20190219184507 37 0 0.0 0.0 0.00 0.00 0.00 100 1017.5
20190219184007 37 0 0.0 0.0 0.00 0.00 0.00 100 1017.5
20190219183507 37 0 0.0 0.0 0.00 0.00 0.00 100 1017.5
20190219183006 38 0 0.0 0.0 0.00 0.00 0.00 100 1017.4
20190219182507 38 0 0.0 0.0 0.00 0.00 0.00 100 1017.4
20190219182006 38 0 0.0 0.0 0.00 0.00 0.00 100 1017.5
20190219181507 38 0 0.0 0.0 0.00 0.00 0.00 99 1017.5
20190219181007 39 0 0.0 0.0 0.00 0.00 0.00 97 1017.4
20190219180508 39 0 0.0 0.0 0.00 0.00 0.00 96 1017.5
20190219180007 40 0 0.0 0.0 0.00 0.00 0.00 94 1017.4
20190219175507 41 0 0.0 0.0 0.00 0.00 0.00 92 1017.4
20190219175007 43 0 0.0 0.0 0.00 0.00 0.00 88 1017.4
20190219174507 44 0 0.0 0.0 0.00 0.00 0.00 86 1017.4
20190219174006 44 0 0.0 0.0 0.00 0.00 0.00 87 1017.3
20190219173506 44 0 0.0 0.0 0.00 0.00 0.00 87 1017.1
20190219173007 44 0 0.0 0.0 0.00 0.00 0.00 87 1017.2
20190219172506 44 0 0.0 0.0 0.00 0.00 0.00 87 1017.1
20190219172006 44 0 0.0 0.0 0.00 0.00 0.00 87 1017.1
20190219171507 44 0 0.0 0.0 0.00 0.00 0.00 87 1017.0
20190219171007 43 0 0.0 0.0 0.00 0.00 0.00 87 1017.0
20190219170506 43 0 0.0 0.0 0.00 0.00 0.00 87 1017.1
20190219170007 44 0 0.0 0.0 0.00 0.00 0.00 87 1017.0
20190219165507 44 0 0.0 0.0 0.00 0.00 0.00 87 1017.0
20190219165006 44 0 0.0 0.0 0.00 0.00 0.00 86 1017.0
20190219164507 45 0 0.0 0.0 0.00 0.00 0.00 85 1016.9
20190219164006 45 0 0.0 0.0 0.00 0.00 0.00 83 1016.9
20190219163506 45 0 0.0 0.0 0.00 0.00 0.00 82 1016.9
20190219163007 46 0 0.0 0.0 0.00 0.00 0.00 80 1016.9
20190219162506 46 0 0.0 0.0 0.00 0.00 0.00 78 1016.7
20190219162006 46 0 0.0 0.0 0.00 0.00 0.00 77 1016.7
20190219161507 47 0 0.0 0.0 0.00 0.00 0.00 76 1016.7
20190219161028 47 0 0.0 0.0 0.00 0.00 0.00 75 1016.6
20190219160506 47 0 0.0 0.0 0.00 0.00 0.00 74 1016.5
20190219160006 48 0 0.0 0.0 0.00 0.00 0.00 73 1016.4
20190219155507 48 0 0.0 0.0 0.00 0.00 0.00 73 1016.5
20190219155007 49 0 0.0 0.0 0.00 0.00 0.00 72 1016.6
20190219154506 49 0 0.0 0.0 0.00 0.00 0.00 71 1016.6
20190219154007 49 0 0.0 0.0 0.00 0.00 0.00 71 1016.6
20190219153507 49 0 0.0 0.0 0.00 0.00 0.00 70 1016.7
20190219153007 50 0 0.0 0.0 0.00 0.00 0.00 69 1016.6
20190219152506 50 0 0.0 0.0 0.00 0.00 0.00 68 1016.6
20190219152007 51 0 0.0 0.0 0.00 0.00 0.00 67 1016.6
20190219151506 51 0 0.0 0.0 0.00 0.00 0.00 66 1016.6
20190219151006 52 0 0.0 0.0 0.00 0.00 0.00 66 1016.6